Weather History for KTKC - April, 2012

Change the Weather History Date:

Wednesday, April 25, 2012

  Actual Average (KMML) Record (KMML)
Temperature  
Mean Temperature 68 °F -  
Max Temperature 81 °F 62 °F 87 °F (1962)
Min Temperature 54 °F 38 °F 21 °F (2013)
Cooling Degree Days 2    
Growing Degree Days 18 (Base 50)    
Moisture  
Dew Point 47 °F    
Average Humidity 52    
Maximum Humidity 80    
Minimum Humidity 31    
Precipitation  
Precipitation 0.00 in - - ()
Sea Level Pressure  
Sea Level Pressure 29.59 in    
Wind  
Wind Speed 12 mph (NW)    
Max Wind Speed 25 mph    
Max Gust Speed 32 mph    
Visibility 10 miles    
Events Rain , Thunderstorm    
Averages and records for this station are not official NWS values.
T = Trace of Precipitation, MM = Missing Value Source: NWS Daily Summary

Daily Weather History Graph

Daily Weather History Graph

Search for Another Location

Airport or City:

Trip Planner

Search our weather history database for the weather conditions in past years. The results will help you decide how hot, cold, wet, or windy it might be!

Date:

Astronomy

Apr. 25, 2012 Rise Set
Actual Time 6:21 AM CDT 8:19 PM CDT
Civil Twilight 5:50 AM CDT 8:51 PM CDT
Nautical Twilight 5:12 AM CDT 9:29 PM CDT
Astronomical Twilight 4:30 AM CDT 10:11 PM CDT
Moon 9:02 AM CDT (4/25) No Moon Set
Length of Visible Light 15h 00m
Length of Day
13h 57m
Waxing Crescent, 17% of the Moon is Illuminated
Apr 25
Waxing Crescent
Apr 29
First Quarter
May 5
Full
May 12
Last Quarter
May 20
New

Hourly Weather History & Observations

Time (CDT) Temp. Dew Point Humidity Pressure Visibility Wind Dir Wind Speed Gust Speed Precip Events Conditions
12:13 AM 60.4 °F 46.6 °F 60% 29.53 in 7.0 mi South 9.2 mph - N/A   Clear
12:33 AM 60.4 °F 46.8 °F 61% 29.53 in 7.0 mi South 8.1 mph - N/A   Clear
12:53 AM 60.6 °F 46.8 °F 60% 29.53 in 5.0 mi South 9.2 mph - N/A   Haze
1:13 AM 59.9 °F 46.9 °F 62% 29.51 in 5.0 mi South 10.4 mph - N/A   Haze
1:33 AM 62.1 °F 47.3 °F 58% 29.50 in 7.0 mi South 13.8 mph - N/A   Clear
1:54 AM 61.9 °F 47.5 °F 59% 29.50 in 7.0 mi South 15.0 mph 20.7 mph N/A   Clear
2:13 AM 61.7 °F 47.5 °F 60% 29.50 in 10.0 mi SSW 13.8 mph 18.4 mph N/A   Scattered Clouds
2:33 AM 61.0 °F 47.3 °F 61% 29.52 in 10.0 mi SW 13.8 mph - N/A   Mostly Cloudy
2:54 AM 61.9 °F 46.9 °F 58% 29.53 in 10.0 mi SW 15.0 mph 20.7 mph N/A   Scattered Clouds
3:14 AM 62.4 °F 46.4 °F 56% 29.50 in 10.0 mi SSW 11.5 mph - N/A   Clear
3:33 AM 65.3 °F 46.8 °F 51% 29.49 in 10.0 mi WSW 13.8 mph 23.0 mph N/A   Scattered Clouds
3:53 AM 66.6 °F 47.3 °F 50% 29.48 in 10.0 mi West 8.1 mph 16.1 mph N/A Thunderstorm Scattered Clouds
4:13 AM 67.5 °F 48.9 °F 51% 29.48 in 10.0 mi WSW 9.2 mph 17.3 mph N/A Rain Light Rain
4:33 AM 61.5 °F 48.7 °F 63% 29.47 in 10.0 mi ESE 5.8 mph - N/A   Scattered Clouds
4:53 AM 62.2 °F 48.4 °F 60% 29.47 in 10.0 mi SSE 4.6 mph - N/A   Mostly Cloudy
5:13 AM 61.5 °F 49.1 °F 64% 29.46 in 10.0 mi ESE 6.9 mph - N/A   Mostly Cloudy
5:33 AM 56.5 °F 48.7 °F 75% 29.49 in 10.0 mi ENE 12.7 mph 20.7 mph N/A   Mostly Cloudy
5:53 AM 54.0 °F 47.7 °F 79% 29.50 in 10.0 mi East 11.5 mph - N/A   Scattered Clouds
6:13 AM 54.0 °F 47.5 °F 79% 29.50 in 10.0 mi SE 11.5 mph - N/A   Clear
6:33 AM 54.1 °F 47.5 °F 78% 29.50 in 10.0 mi SE 6.9 mph - N/A   Clear
6:54 AM 54.1 °F 47.8 °F 79% 29.50 in 10.0 mi ESE 4.6 mph - N/A   Clear
7:13 AM 54.5 °F 48.4 °F 80% 29.51 in 10.0 mi East 5.8 mph - N/A   Clear
7:33 AM 54.7 °F 48.7 °F 80% 29.50 in 10.0 mi ESE 4.6 mph - N/A   Clear
7:53 AM 55.6 °F 49.1 °F 79% 29.51 in 10.0 mi SSE 4.6 mph - N/A   Clear
8:13 AM 57.6 °F 49.1 °F 73% 29.51 in 10.0 mi SSE 4.6 mph - N/A   Clear
8:33 AM 60.4 °F 50.0 °F 68% 29.51 in 10.0 mi South 6.9 mph - N/A   Clear
8:53 AM 61.7 °F 50.7 °F 67% 29.50 in 10.0 mi South 5.8 mph - N/A   Clear
9:13 AM 62.8 °F 50.9 °F 65% 29.51 in 10.0 mi SSW 6.9 mph - N/A   Clear
9:33 AM 64.2 °F 51.6 °F 64% 29.50 in 10.0 mi SSW 5.8 mph - N/A   Clear
9:53 AM 67.5 °F 51.1 °F 56% 29.51 in 10.0 mi SSW 8.1 mph - N/A   Clear
10:13 AM 69.3 °F 50.0 °F 50% 29.51 in 10.0 mi WSW 8.1 mph - N/A   Clear
10:33 AM 72.1 °F 49.5 °F 45% 29.51 in 10.0 mi West 8.1 mph - N/A   Clear
10:53 AM 74.8 °F 49.1 °F 40% 29.52 in 10.0 mi NW 10.4 mph 16.1 mph N/A   Clear
11:13 AM 77.0 °F 48.9 °F 37% 29.52 in 10.0 mi NW 16.1 mph - N/A   Clear
11:33 AM 77.0 °F 48.4 °F 36% 29.53 in 10.0 mi NW 16.1 mph - N/A   Clear
11:53 AM 78.6 °F 48.7 °F 35% 29.54 in 10.0 mi North 17.3 mph 20.7 mph N/A   Clear
12:14 PM 79.2 °F 46.8 °F 32% 29.54 in 10.0 mi NNW 18.4 mph 21.9 mph N/A   Clear
12:33 PM 79.3 °F 47.8 °F 33% 29.55 in 10.0 mi North 20.7 mph - N/A   Clear
12:54 PM 79.9 °F 46.9 °F 31% 29.56 in 10.0 mi NNW 20.7 mph 27.6 mph N/A   Clear
1:13 PM 79.7 °F 46.6 °F 31% 29.57 in 10.0 mi NNW 23.0 mph 28.8 mph N/A   Clear
1:33 PM 81.3 °F 47.8 °F 31% 29.58 in 10.0 mi NNW 20.7 mph 32.2 mph N/A   Clear
2:13 PM 76.6 °F 47.1 °F 35% 29.60 in 10.0 mi NNW 24.2 mph 29.9 mph N/A   Clear
2:34 PM 76.1 °F 46.6 °F 35% 29.62 in 10.0 mi NNW 25.3 mph 31.1 mph N/A   Clear
2:53 PM 73.9 °F 48.7 °F 41% 29.62 in 10.0 mi NNW 20.7 mph 32.2 mph N/A   Clear
3:13 PM 73.6 °F 49.6 °F 43% 29.63 in 10.0 mi NNW 24.2 mph 32.2 mph N/A   Clear
3:34 PM 72.7 °F 50.9 °F 46% 29.64 in 10.0 mi NNW 21.9 mph 28.8 mph N/A   Clear
3:53 PM 72.5 °F 51.4 °F 47% 29.64 in 10.0 mi NNW 19.6 mph 28.8 mph N/A   Clear
4:13 PM 75.0 °F 52.2 °F 45% 29.64 in 10.0 mi NNW 16.1 mph 25.3 mph N/A   Clear
4:53 PM 76.5 °F 48.9 °F 38% 29.64 in 10.0 mi NNW 20.7 mph 29.9 mph N/A   Clear
5:13 PM 76.1 °F 47.8 °F 37% 29.65 in 10.0 mi North 18.4 mph 29.9 mph N/A   Clear
5:33 PM 76.1 °F 46.9 °F 36% 29.65 in 10.0 mi North 20.7 mph 28.8 mph N/A   Clear
5:54 PM 75.9 °F 46.0 °F 35% 29.66 in 10.0 mi NNW 18.4 mph 26.5 mph N/A   Clear
6:13 PM 75.4 °F 46.6 °F 36% 29.67 in 10.0 mi NNW 17.3 mph - N/A   Clear
6:33 PM 75.2 °F 47.1 °F 37% 29.68 in 10.0 mi NNW 15.0 mph 21.9 mph N/A   Clear
6:54 PM 74.3 °F 47.5 °F 39% 29.69 in 10.0 mi NNW 13.8 mph 19.6 mph N/A   Clear
7:13 PM 73.6 °F 45.1 °F 36% 29.69 in 10.0 mi NNW 13.8 mph 19.6 mph N/A   Clear
7:33 PM 72.7 °F 45.7 °F 38% 29.70 in 10.0 mi NNW 11.5 mph 20.7 mph N/A   Clear
7:53 PM 71.4 °F 45.5 °F 39% 29.71 in 10.0 mi NNW 9.2 mph - N/A   Clear
8:13 PM 69.6 °F 45.7 °F 42% 29.72 in 10.0 mi NNW 9.2 mph - N/A   Clear
8:33 PM 68.0 °F 44.6 °F 43% 29.72 in 10.0 mi NNW 8.1 mph - N/A   Clear
8:54 PM 66.0 °F 45.0 °F 47% 29.73 in 10.0 mi NNW 5.8 mph - N/A   Clear
9:13 PM 65.3 °F 44.6 °F 47% 29.74 in 10.0 mi NW 6.9 mph - N/A   Clear
9:33 PM 64.4 °F 44.2 °F 48% 29.76 in 10.0 mi NNW 8.1 mph - N/A   Clear
9:53 PM 64.2 °F 44.2 °F 48% 29.77 in 10.0 mi NNW 11.5 mph - N/A   Clear
10:12 PM 62.8 °F 44.6 °F 51% 29.79 in 10.0 mi NW 10.4 mph - N/A   Clear
10:33 PM 61.9 °F 44.4 °F 53% 29.80 in 10.0 mi NNW 11.5 mph - N/A   Clear
10:53 PM 61.0 °F 44.1 °F 54% 29.82 in 10.0 mi NNW 12.7 mph - N/A   Clear
11:13 PM 60.3 °F 43.5 °F 54% 29.82 in 10.0 mi NNW 12.7 mph - N/A   Clear
11:33 PM 59.2 °F 43.7 °F 57% 29.83 in 10.0 mi NNW 12.7 mph - N/A   Clear
11:53 PM 58.1 °F 43.0 °F 57% 29.84 in 10.0 mi NNW 11.5 mph - N/A   Clear